When you browse on this site, cookies collect data to enhance your experience and personalize the content and advertising you see.
Visit our Privacy Policy to learn more. By continuing to use the site, you agree to this use of cookies and data.
  • In Romania
  • List of Countries
  • For 7 days
  • Water Temperature
  • Weather Map
  • Weather Widgets
  • user-avatar
    Login

    Hourly Weather Bobo-Dioulasso

    Today, 23 January, Thursday

    Time Temperature Precipitation Wind Pressure Humidity
    00:00 +27°C° 0 mm 2 mps 723 mmHg 25%
    01:00 +26°C° 0 mm 2 mps 723 mmHg 25%
    02:00 +25°C° 0 mm 2 mps 723 mmHg 26%
    03:00 +25°C° 0 mm 2 mps 722 mmHg 27%
    04:00 +25°C° 0 mm 2 mps 722 mmHg 27%
    05:00 +24°C° 0 mm 2 mps 722 mmHg 27%
    06:00 +24°C° 0 mm 2 mps 722 mmHg 26%
    07:00 +26°C° 0 mm 3 mps 723 mmHg 23%
    08:00 +28°C° 0 mm 3 mps 724 mmHg 19%
    09:00 +30°C° 0 mm 3 mps 724 mmHg 15%
    10:00 +34°C° 0 mm 4 mps 724 mmHg 13%
    11:00 +36°C° 0 mm 4 mps 724 mmHg 11%
    12:00 +38°C° 0 mm 4 mps 724 mmHg 8%
    13:00 +40°C° 0 mm 4 mps 723 mmHg 7%
    14:00 +41°C° 0 mm 4 mps 722 mmHg 7%
    15:00 +42°C° 0 mm 4 mps 721 mmHg 6%
    16:00 +39°C° 0 mm 3 mps 721 mmHg 7%
    17:00 +37°C° 0 mm 3 mps 721 mmHg 8%
    18:00 +36°C° 0 mm 2 mps 721 mmHg 8%
    19:00 +34°C° 0 mm 2 mps 722 mmHg 9%
    20:00 +32°C° 0 mm 2 mps 723 mmHg 10%
    21:00 +30°C° 0 mm 3 mps 723 mmHg 11%
    22:00 +29°C° 0 mm 3 mps 723 mmHg 11%
    23:00 +29°C° 0 mm 3 mps 723 mmHg 12%

    Tomorrow, 24 January, Friday

    Time Temperature Precipitation Wind Pressure Humidity
    00:00 +28°C° 0 mm 3 mps 723 mmHg 13%
    01:00 +27°C° 0 mm 3 mps 723 mmHg 13%
    02:00 +27°C° 0 mm 3 mps 723 mmHg 13%
    03:00 +26°C° 0 mm 3 mps 722 mmHg 13%
    04:00 +25°C° 0 mm 3 mps 723 mmHg 13%
    05:00 +24°C° 0 mm 3 mps 723 mmHg 13%
    06:00 +24°C° 0 mm 3 mps 723 mmHg 12%
    07:00 +26°C° 0 mm 4 mps 723 mmHg 11%
    08:00 +28°C° 0 mm 4 mps 724 mmHg 9%
    09:00 +30°C° 0 mm 5 mps 725 mmHg 8%
    10:00 +33°C° 0 mm 5 mps 725 mmHg 7%
    11:00 +35°C° 0 mm 5 mps 724 mmHg 6%
    12:00 +39°C° 0 mm 5 mps 724 mmHg 5%
    13:00 +39°C° 0 mm 5 mps 723 mmHg 5%
    14:00 +40°C° 0 mm 4 mps 723 mmHg 5%
    15:00 +41°C° 0 mm 4 mps 722 mmHg 4%
    16:00 +38°C° 0 mm 3 mps 722 mmHg 5%
    17:00 +36°C° 0 mm 3 mps 722 mmHg 6%
    18:00 +35°C° 0 mm 2 mps 722 mmHg 7%
    19:00 +32°C° 0 mm 2 mps 722 mmHg 7%
    20:00 +30°C° 0 mm 2 mps 723 mmHg 8%
    21:00 +28°C° 0 mm 2 mps 723 mmHg 8%
    22:00 +27°C° 0 mm 2 mps 723 mmHg 9%
    23:00 +26°C° 0 mm 3 mps 723 mmHg 9%

    Day after tomorrow, 25 January, Saturday

    Time Temperature Precipitation Wind Pressure Humidity
    00:00 +25°C° 0 mm 3 mps 723 mmHg 9%
    01:00 +24°C° 0 mm 3 mps 723 mmHg 9%
    02:00 +24°C° 0 mm 3 mps 723 mmHg 10%
    03:00 +23°C° 0 mm 2 mps 723 mmHg 10%
    04:00 +21°C° 0 mm 2 mps 723 mmHg 11%
    05:00 +21°C° 0 mm 2 mps 723 mmHg 11%
    06:00 +20°C° 0 mm 2 mps 723 mmHg 12%
    07:00 +22°C° 0 mm 3 mps 724 mmHg 11%
    08:00 +25°C° 0 mm 4 mps 724 mmHg 10%
    09:00 +27°C° 0 mm 4 mps 725 mmHg 9%
    10:00 +30°C° 0 mm 4 mps 725 mmHg 8%
    11:00 +34°C° 0 mm 4 mps 725 mmHg 7%
    12:00 +37°C° 0 mm 4 mps 725 mmHg 5%
    13:00 +38°C° 0 mm 4 mps 724 mmHg 5%
    14:00 +40°C° 0 mm 4 mps 723 mmHg 5%
    15:00 +41°C° 0 mm 4 mps 722 mmHg 4%
    16:00 +38°C° 0 mm 3 mps 722 mmHg 5%
    17:00 +36°C° 0 mm 3 mps 722 mmHg 6%
    18:00 +34°C° 0 mm 2 mps 722 mmHg 6%
    19:00 +31°C° 0 mm 2 mps 722 mmHg 7%
    20:00 +29°C° 0 mm 2 mps 723 mmHg 7%
    21:00 +27°C° 0 mm 2 mps 723 mmHg 8%
    22:00 +26°C° 0 mm 2 mps 723 mmHg 8%
    23:00 +26°C° 0 mm 2 mps 723 mmHg 9%

    26 January, Sunday

    Time Temperature Precipitation Wind Pressure Humidity
    00:00 +25°C° 0 mm 2 mps 723 mmHg 9%
    01:00 +24°C° 0 mm 2 mps 723 mmHg 10%
    02:00 +23°C° 0 mm 2 mps 723 mmHg 10%
    03:00 +21°C° 0 mm 2 mps 722 mmHg 11%
    04:00 +21°C° 0 mm 2 mps 722 mmHg 11%
    05:00 +20°C° 0 mm 2 mps 723 mmHg 11%
    06:00 +20°C° 0 mm 2 mps 723 mmHg 11%
    07:00 +22°C° 0 mm 3 mps 724 mmHg 10%
    08:00 +25°C° 0 mm 3 mps 724 mmHg 9%
    09:00 +28°C° 0 mm 4 mps 725 mmHg 7%
    10:00 +30°C° 0 mm 4 mps 725 mmHg 6%
    11:00 +34°C° 0 mm 4 mps 725 mmHg 5%
    12:00 +37°C° 0 mm 4 mps 725 mmHg 4%
    13:00 +38°C° 0 mm 4 mps 724 mmHg 4%
    14:00 +38°C° 0 mm 3 mps 723 mmHg 4%
    15:00 +39°C° 0 mm 3 mps 722 mmHg 4%
    16:00 +37°C° 0 mm 2 mps 722 mmHg 5%
    17:00 +36°C° 0 mm 2 mps 722 mmHg 5%
    18:00 +33°C° 0 mm 1 mps 722 mmHg 6%
    19:00 +31°C° 0 mm 2 mps 722 mmHg 7%
    20:00 +29°C° 0 mm 2 mps 723 mmHg 7%
    21:00 +27°C° 0 mm 2 mps 723 mmHg 7%
    22:00 +26°C° 0 mm 2 mps 723 mmHg 8%
    23:00 +25°C° 0 mm 2 mps 723 mmHg 8%

    27 January, Monday

    Time Temperature Precipitation Wind Pressure Humidity
    00:00 +24°C° 0 mm 2 mps 723 mmHg 8%
    01:00 +24°C° 0 mm 2 mps 723 mmHg 9%
    02:00 +23°C° 0 mm 2 mps 723 mmHg 9%
    03:00 +21°C° 0 mm 2 mps 722 mmHg 9%
    04:00 +21°C° 0 mm 2 mps 723 mmHg 10%
    05:00 +20°C° 0 mm 2 mps 723 mmHg 10%
    06:00 +19°C° 0 mm 2 mps 723 mmHg 10%
    07:00 +23°C° 0 mm 2 mps 723 mmHg 10%
    08:00 +25°C° 0 mm 3 mps 724 mmHg 9%
    09:00 +27°C° 0 mm 3 mps 724 mmHg 8%
    10:00 +30°C° 0 mm 3 mps 724 mmHg 7%
    11:00 +34°C° 0 mm 4 mps 724 mmHg 6%
    12:00 +37°C° 0 mm 4 mps 724 mmHg 5%
    13:00 +38°C° 0 mm 4 mps 723 mmHg 4%
    14:00 +38°C° 0 mm 3 mps 723 mmHg 4%
    15:00 +39°C° 0 mm 3 mps 722 mmHg 4%
    16:00 +37°C° 0 mm 3 mps 722 mmHg 5%
    17:00 +36°C° 0 mm 2 mps 722 mmHg 5%
    18:00 +34°C° 0 mm 2 mps 721 mmHg 6%
    19:00 +31°C° 0 mm 2 mps 722 mmHg 6%
    20:00 +29°C° 0 mm 2 mps 722 mmHg 7%
    21:00 +27°C° 0 mm 1 mps 723 mmHg 7%
    22:00 +26°C° 0 mm 1 mps 723 mmHg 8%
    23:00 +25°C° 0 mm 2 mps 723 mmHg 8%

    28 January, Tuesday

    Time Temperature Precipitation Wind Pressure Humidity
    00:00 +24°C° 0 mm 2 mps 723 mmHg 8%
    01:00 +23°C° 0 mm 2 mps 723 mmHg 9%
    02:00 +23°C° 0 mm 2 mps 722 mmHg 9%
    03:00 +21°C° 0 mm 2 mps 722 mmHg 9%
    04:00 +21°C° 0 mm 2 mps 722 mmHg 10%
    05:00 +20°C° 0 mm 2 mps 722 mmHg 10%
    06:00 +19°C° 0 mm 2 mps 722 mmHg 11%
    07:00 +23°C° 0 mm 2 mps 723 mmHg 10%
    08:00 +25°C° 0 mm 2 mps 724 mmHg 9%
    09:00 +27°C° 0 mm 3 mps 725 mmHg 8%
    10:00 +30°C° 0 mm 3 mps 725 mmHg 7%
    11:00 +33°C° 0 mm 3 mps 724 mmHg 6%
    12:00 +36°C° 0 mm 4 mps 724 mmHg 5%
    13:00 +37°C° 0 mm 3 mps 724 mmHg 5%
    14:00 +38°C° 0 mm 3 mps 723 mmHg 4%
    15:00 +39°C° 0 mm 3 mps 722 mmHg 4%
    16:00 +37°C° 0 mm 2 mps 722 mmHg 5%
    17:00 +35°C° 0 mm 2 mps 722 mmHg 5%
    18:00 +32°C° 0 mm 1 mps 722 mmHg 6%
    19:00 +30°C° 0 mm 1 mps 722 mmHg 7%
    20:00 +28°C° 0 mm 1 mps 723 mmHg 7%
    21:00 +24°C° 0 mm 0 mps 723 mmHg 8%
    22:00 +26°C° 0 mm 1 mps 723 mmHg 8%
    23:00 +25°C° 0 mm 1 mps 723 mmHg 9%
    Show more